星链-31388 (STARLINK-31388 )

导读

STARLINK-31388是美国SpaceX星链计划中的一颗卫星,于2024年4月23日发射升空,隶属于星链星座组网卫星。星链系统旨在为全球提供高速互联网接入服务,该卫星的成功发射进一步扩充了星链星座的卫星规模,提升了系统覆盖范围与服务能力,推动全球低轨卫星互联网建设进程。

基本信息
目录编号:
59565
目录名称:
STARLINK-31388
国际标识:
2024-076B
轨道中心:
EARTH
卫星名称:
星链-31388
卫星全名:
星链-31388 (STARLINK-31388 )
卫星状态:
在轨 (已飞行854 天)
发射日期:
2024-04-23 UTC
国别 :
美国 (US)
星等 :
--
轨道信息
数据来源 国际轨道数据 AOE轨道数据
星历时间 2026-08-25T11:32:57+0800
15小时前
查看轨道信息
2026-08-20T00:00:00+0800
6天前
查看轨道信息
半长轴 6861.25km 6861.176km
偏心率 0.00008 0.0000931
轨道倾角 43.000° 42.999°
近地点辐角 284.187° 245.670°
升交点赤经 137.871° 168.827°
平近点角 75.889° 176.444°
近地点 482.564km 482.4km
远地点 483.662km 483.678km
周期 94.268分钟 94.267分钟
每日圈数 15.275588 15.275834
详细信息
固有亮度:
5
最大亮度:
1.5
卫星平台:
Starlink v2.0 mini
覆盖范围:
全球
运营商:
太空探索技术公司
运营商所在国:
美国
制造商(研发单位):
太空探索技术公司
制造商所在国:
美国
使用方式:
暂无
卫星简介
星链(Starlink)计划是由太空探索技术公司(SpaceX)提出的一个巨型低轨卫星互联网星座项目,计划在2019年至2024年间在太空搭建由约1.2万颗卫星组成的“星链”网络,其中1584颗将部署在地球上空550千米处的近地轨道,并从2020年开始工作。该卫星仍在工作。
2D轨道图
3D轨道图
轨道高度分析图
轨道倾角分析图
轨道综合分析图
查看轨道综合分析图